CAPE
0 0 0 0 0 0 0 0 0 0 0 1 1 0 0 0 0 0 0 0 0 0 0 0 0 0 0 0 0 0 0 0 0 0 0 0 0 0 0 0 0 0 0 0 0
0 0 0 0 0 0 0 0 0 0 0 2 0 0 0 0 0 0 0 0 0 0 0 0 0 0 0 0 0 0 0 0 0 0 0 0 0 0 0 0 0 0 0 0 0
0 0 0 0 0 0 0 0 0 0 1 0 0 0 0 0 0 0 0 0 0 0 0 0 0 0 0 0 0 0 0 0 0 0 0 0 0 0 0 0 0 0 0 0 0
0 0 0 0 0 0 0 0 0 0 0 0 0 0 0 0 0 0 0 0 0 0 0 0 0 0 0 0 0 0 0 0 0 0 0 0 0 0 0 0 0 0 0 0 0
0 0 0 0 0 0 0 0 0 0 0 0 0 0 0 0 0 0 0 0 0 0 0 0 0 0 0 0 0 0 0 0 0 0 0 0 0 0 0 0 0 0 0 0 0
0 0 0 0 0 0 0 0 0 0 0 0 0 0 0 0 0 0 0 0 0 0 0 0 0 0 0 0 0 0 0 0 0 0 0 0 0 0 0 0 0 0 0 0 0
0 0 0 0 0 0 0 0 0 0 0 0 0 0 0 0 0 0 0 0 0 0 0 0 0 0 0 0 0 0 0 0 0 0 0 0 0 0 0 0 0 0 0 0 0
0 0 0 0 0 0 0 0 0 0 0 0 0 0 0 0 0 0 0 0 0 0 0 0 0 0 0 0 0 0 0 0 0 0 0 0 0 0 0 0 0 0 0 0 0
0 0 0 0 0 0 0 0 0 0 0 0 0 0 0 0 0 0 0 0 0 0 0 0 0 0 0 0 1 0 1 0 0 0 0 0 0 0 0 0 0 0 0 0 0
0 0 0 0 0 0 0 0 0 0 0 0 0 0 0 0 0 0 0 0 0 0 0 0 0 0 0 5 2 1 1 0 1 0 0 1 2 0 0 0 0 0 0 0 0
0 0 0 0 0 0 0 0 0 0 0 0 0 0 0 0 0 0 0 0 0 0 0 0 0 0 0 0 2 3 0 3 2 0 0 0 3 0 1 0 0 0 0 0 0
0 0 0 0 0 0 0 0 0 0 0 0 0 0 0 0 0 0 0 0 0 0 0 0 0 0 0 0 2 0 2 2 1 0 0 1 0 0 0 0 0 0 0 0 0
0 0 0 0 0 0 0 0 0 0 0 0 0 0 0 0 0 0 0 0 0 0 0 0 0 0 0 0 1 3 0 0 0 0 0 0 0 0 0 0 0 0 0 0 0
0 0 0 0 0 0 0 0 0 0 0 0 0 0 0 0 0 0 0 0 0 0 0 0 0 0 0 4 3 2 1 4 0 0 0 0 0 0 0 0 0 0 0 0 0
0 0 0 0 0 0 0 0 0 0 0 0 0 0 0 0 0 0 0 0 0 0 0 0 0 0 0 2 2 1 0 0 0 0 0 0 0 0 0 0 0 0 0 0 0
0 0 0 0 0 0 0 0 0 0 0 0 0 0 0 0 0 0 0 0 0 0 0 0 0 0 0 0 0 0 0 0 1 1 0 0 0 0 0 1 0 0 0 0 0
0 0 0 0 0 0 0 0 0 0 0 0 0 0 0 0 0 0 0 0 1 0 0 0 0 0 0 0 0 0 0 0 1 2 0 0 0 1 0 2 1 2 0 0 1
0 0 0 0 0 0 0 0 0 0 0 0 0 0 0 0 0 0 0 0 0 2 0 0 0 0 0 0 0 0 0 0 0 0 0 0 0 0 0 0 0 0 0 1 3
0 0 0 0 0 0 0 0 0 0 0 0 0 0 0 0 0 0 0 0 0 0 0 1 0 0 0 0 0 0 0 0 0 0 0 0 0 0 0 0 0 0 0 1 1
0 0 0 0 0 0 0 0 0 0 0 0 0 0 0 0 0 0 0 0 0 0 0 0 1 0 0 0 0 0 0 0 0 0 0 0 0 0 0 0 0 0 0 1 1
0 0 0 0 0 0 0 0 0 0 0 0 0 0 0 0 0 0 0 0 0 0 0 0 0 0 0 0 0 0 0 0 0 0 0 0 0 0 1 1 0 0 1 1 1
0 0 0 0 0 0 0 0 0 0 0 0 0 0 0 0 0 0 0 0 0 0 1 0 2 0 0 0 0 0 0 0 0 0 0 0 0 0 0 0 1 0 1 0 1
0 0 0 0 0 0 0 0 0 0 0 0 0 0 0 0 0 0 0 0 0 0 0 0 0 0 0 0 0 0 0 0 0 0 0 0 0 0 0 0 1 0 0 0 0
0 0 0 0 0 0 0 0 0 0 0 0 0 0 0 0 0 0 0 0 0 0 0 0 0 0 0 0 0 0 0 0 0 0 0 0 0 0 0 0 0 0 0 0 0
0 0 0 0 0 0 0 0 0 0 0 0 0 0 0 0 0 0 0 0 0 0 0 0 0 0 0 0 0 0 0 0 0 0 0 0 3 2 0 0 0 0 0 0 0
0 0 0 0 0 0 0 0 0 0 0 0 0 0 0 0 0 0 0 0 0 0 0 0 0 0 0 0 0 0 0 0 0 0 0 0 0 0 0 0 0 0 0 0 0
0 0 0 0 0 0 0 0 0 0 0 0 0 0 0 0 0 0 0 0 0 0 0 0 0 0 0 0 0 0 0 0 0 1 0 0 0 0 0 0 0 0 0 0 0
CIN
0 0 0 0 0 0 0 0 0 0 0 0 0 0 0 0 0 0 0 0 0 0 0 0 0 0 0 0 0 0 0 0 0 0 0 0 0 0 0 0 0 0 0 0 0
0 0 0 0 0 0 0 0 0 0 0 0 0 0 0 0 0 0 0 0 0 0 0 0 0 0 0 0 0 0 0 0 0 0 0 0 0 0 0 0 0 0 0 0 0
0 0 0 0 0 0 0 0 0 0 0 0 0 0 0 0 0 0 0 0 0 0 0 0 0 0 0 0 0 0 0 0 0 0 0 0 0 0 0 0 0 0 0 0 0
0 0 0 0 0 0 0 0 0 0 0 0 0 0 0 0 0 0 0 0 0 0 0 0 0 0 0 0 0 0 0 0 0 0 0 0 0 0 0 0 0 0 0 0 0
0 0 0 0 0 0 0 0 0 0 0 0 0 0 0 0 0 0 0 0 0 0 0 0 0 0 0 0 0 0 0 0 0 0 0 0 0 0 0 0 0 0 0 0 0
0 0 0 0 0 0 0 0 0 0 0 0 0 0 0 0 0 0 0 0 0 0 0 0 0 0 0 0 0 0 0 0 0 0 0 0 0 0 0 0 0 0 0 0 0
0 0 0 0 0 0 0 0 0 0 0 0 0 0 0 0 0 0 0 0 0 0 0 0 0 0 0 0 0 0 0 0 0 0 0 0 0 0 0 0 0 0 0 0 0
0 0 0 0 0 0 0 0 0 0 0 0 0 0 0 0 0 0 0 0 0 0 0 0 0 0 0 0 0 0 0 0 0 0 0 -1 0 0 0 0 0 0 0 0 0
0 0 0 0 0 0 0 0 0 0 0 0 0 0 0 0 0 0 0 0 0 0 0 0 0 0 0 -1 -2 -3 -2 -2 0 0 0 0 0 0 0 0 0 0 0 0 0
0 0 0 0 0 0 0 0 0 0 0 0 0 0 0 0 0 0 0 0 0 0 0 0 0 0 -5 -3 -1 -3 -3 -3 -3 -1 0 -4 -3 0 0 0 0 0 0 0 0
0 0 0 0 0 0 0 0 0 0 0 0 0 0 0 0 0 0 0 0 0 0 0 0 0 0 0 -1 -4 -2 0 -2 -2 -1 0 0 -3 0 -7 0 0 0 0 0 0
0 0 0 0 0 0 0 0 0 0 0 0 0 0 0 0 0 0 0 0 0 0 0 0 0 0 0 -1 -4 0 -5 -4 -4 0 -1 -3 -1 0 0 0 0 0 0 0 0
0 0 0 0 0 0 0 0 0 0 0 0 0 0 0 0 0 0 0 0 0 0 0 0 0 0 0 -1 -5 -4 -3 -1 0 0 0 0 0 0 0 0 0 0 0 0 0
0 0 0 0 0 0 0 0 0 0 0 0 0 0 0 0 0 0 0 0 0 0 0 0 0 0 0 -3 -5 -1 -5 -3 -2 0 0 -1 0 0 0 0 0 0 0 0 0
0 0 0 0 0 0 0 0 0 0 0 0 0 0 0 0 0 0 0 0 0 0 0 0 0 0 0 -3 -5 0 0 0 0 0 0 0 0 0 0 0 0 0 0 0 0
0 0 0 0 0 0 0 0 0 0 0 0 0 0 0 0 0 0 0 0 0 0 0 0 0 0 0 0 0 0 0 0 0 0 0 0 0 0 0 0 0 0 0 0 0
0 0 0 0 0 0 0 0 0 0 0 0 0 0 0 0 0 0 0 0 0 0 0 0 0 0 0 -1 0 0 0 0 -2 -3 0 0 0 0 0 0 0 0 0 0 -3
0 0 0 0 0 0 0 0 0 0 0 0 0 0 0 0 0 0 0 0 0 -1 -1 0 0 0 0 0 0 0 -3 -1 0 0 0 0 0 0 0 0 0 0 0 0 0
0 0 0 0 0 0 0 0 0 0 0 0 0 0 0 0 0 0 0 0 -1 -1 0 0 0 0 0 0 0 0 0 0 0 0 0 0 0 0 0 0 0 0 0 0 0
0 0 0 0 0 0 0 0 0 0 0 0 0 0 0 0 0 0 0 0 0 -1 -2 -1 0 0 0 0 0 0 0 0 -2 0 -1 0 0 0 0 0 0 0 0 0 0
0 0 0 0 0 0 0 0 0 0 0 0 0 0 0 0 0 0 0 0 0 0 0 0 0 0 0 0 0 0 0 0 0 0 0 0 0 0 0 0 0 0 0 0 0
0 0 0 0 0 0 0 0 0 0 0 0 0 0 0 0 0 0 0 0 0 0 0 -2 0 0 0 0 0 0 0 0 0 0 0 0 0 0 0 0 0 0 0 0 0
0 0 0 0 0 0 0 0 0 0 0 0 0 0 0 0 0 0 0 0 0 0 0 0 0 0 0 0 0 0 0 0 0 0 0 0 0 0 0 0 0 0 0 0 0
0 0 0 0 0 0 0 0 0 0 0 0 0 0 0 0 0 0 0 0 0 0 0 0 0 0 0 0 0 0 0 0 0 0 0 0 0 0 0 0 0 0 0 0 0
0 0 0 0 0 0 0 0 0 0 0 0 0 0 0 0 0 0 0 0 0 0 0 0 0 0 0 0 0 0 0 0 0 0 0 0 0 0 0 0 0 0 0 0 0
0 0 0 0 0 0 0 0 0 0 0 0 0 0 0 0 0 0 0 0 0 0 0 0 0 0 0 0 0 0 0 0 0 0 0 0 0 0 0 0 0 0 0 0 0
0 0 0 0 0 0 0 0 0 0 0 0 0 0 0 0 0 0 0 0 0 0 0 0 0 0 0 0 0 0 0 0 0 0 0 0 0 0 0 0 0 0 0 0 0
Wind_Speed
24 25 27 29 30 31 33 34 32 30 30 28 29 29 28 29 24 22 26 25 27 32 33 34 28 26 22 21 20 20 27 33 35 32 35 31 34 34 35 41 42 44 46 44 42
25 27 28 30 32 33 34 34 32 30 30 28 28 26 26 25 22 25 23 25 29 32 33 31 29 26 23 23 21 21 29 32 28 30 32 31 31 35 42 47 46 44 42 43 45
26 27 29 31 33 34 35 35 31 30 29 27 25 24 25 21 23 25 27 28 30 29 29 26 23 24 25 23 21 22 28 28 27 28 28 30 31 24 35 47 45 46 43 39 40
27 29 30 32 34 36 36 33 31 30 27 25 23 24 22 21 29 26 31 31 28 26 25 24 22 26 29 28 25 29 27 29 30 31 31 32 34 29 22 41 44 45 46 46 47
28 30 31 33 35 37 36 33 31 29 25 23 23 22 20 24 27 28 33 31 27 25 25 25 26 27 29 31 33 33 34 34 34 34 34 37 37 41 37 43 47 48 49 49 49
28 31 32 34 36 38 36 32 33 25 24 24 22 20 21 27 27 30 35 31 29 27 25 23 24 28 31 33 33 34 38 38 37 38 39 42 45 44 46 41 43 45 49 47 46
28 31 33 34 37 38 34 35 27 24 23 23 22 21 23 28 29 33 33 31 25 26 24 23 23 24 27 33 30 32 40 40 38 34 32 38 42 43 40 36 38 38 41 44 44
29 31 33 35 38 37 36 30 23 22 22 21 21 21 24 25 30 34 33 29 27 23 19 20 20 21 23 26 29 30 28 32 25 28 37 30 47 41 35 33 38 40 39 40 39
29 31 33 36 38 34 37 24 22 22 20 19 23 22 28 26 39 32 32 33 29 22 20 19 18 18 18 21 24 22 24 33 39 34 35 26 38 33 34 40 45 45 45 43 41
29 31 33 35 36 34 32 21 21 20 19 18 22 23 29 37 34 28 37 32 26 26 21 20 17 17 16 24 20 26 26 28 38 36 32 29 40 41 38 40 41 40 40 41 40
29 31 33 35 32 31 28 21 22 22 27 25 26 27 32 34 23 35 39 30 26 21 25 21 21 25 24 22 21 24 26 26 25 38 32 29 34 37 35 28 29 31 33 34 36
28 31 33 35 25 30 26 26 24 19 22 20 25 28 28 31 27 39 38 34 28 30 29 24 25 23 23 23 27 36 39 39 41 34 27 34 39 36 20 22 26 30 31 33 35
27 30 33 35 21 25 28 26 21 18 18 21 27 30 31 30 29 39 41 29 30 30 30 26 25 25 24 27 32 38 32 36 41 44 46 39 35 17 20 22 30 31 33 34 35
26 29 32 33 20 24 24 24 20 17 19 28 30 28 30 25 28 34 36 29 30 30 28 24 26 29 26 29 33 29 33 32 38 32 24 17 17 18 25 30 32 34 35 37 35
25 28 30 27 23 25 22 20 18 18 23 27 28 23 29 33 26 33 32 30 30 29 27 25 29 32 32 32 30 26 31 19 14 11 16 18 15 22 26 31 34 36 36 36 35
24 26 28 19 20 22 19 19 18 23 24 25 26 29 30 30 28 29 34 37 24 25 24 20 20 28 28 30 27 35 27 19 19 16 16 19 14 21 26 30 33 32 34 33 26
23 26 23 20 21 19 17 19 23 26 23 26 25 26 26 30 28 33 34 44 42 33 30 23 24 30 32 33 29 35 34 22 21 21 19 20 16 17 28 29 31 32 30 28 23
23 23 20 18 19 16 18 22 24 21 22 23 22 24 27 31 29 31 33 39 34 31 25 33 32 33 35 37 37 31 32 24 21 20 19 20 19 18 30 30 31 29 25 23 22
22 20 18 16 18 16 20 24 22 20 21 21 19 24 26 28 28 30 33 37 35 35 37 33 29 28 33 35 40 31 30 17 17 14 17 21 21 17 27 20 21 20 20 22 22
21 21 16 19 16 16 21 20 18 19 21 20 24 24 27 27 31 31 34 30 31 31 27 29 31 30 34 32 40 32 28 26 20 20 21 21 23 12 18 18 16 19 21 21 17
19 19 15 18 15 19 20 18 17 18 20 19 21 22 22 25 26 28 31 27 30 28 27 28 30 31 32 42 47 40 36 25 20 19 18 16 19 6 12 16 15 7 7 7 3
18 17 15 15 18 19 18 16 17 17 18 16 18 20 21 22 24 25 27 27 29 29 32 31 31 36 36 33 35 41 35 26 27 23 19 19 18 1 2 1 2 4 2 4 7
18 17 15 15 16 17 16 16 15 17 16 15 17 18 19 21 22 23 24 24 28 32 32 31 36 41 38 34 30 35 33 26 23 18 21 22 20 1 1 3 5 7 6 8 9
16 16 16 16 16 14 15 14 15 16 15 14 15 17 19 19 19 20 23 23 26 30 28 27 35 40 44 38 33 36 30 28 24 29 24 23 12 7 6 7 9 8 8 12 13
16 15 16 16 15 15 15 13 14 14 14 12 13 13 16 18 18 19 21 23 24 28 27 28 34 33 30 29 34 37 34 26 28 26 27 16 15 11 10 9 6 8 11 10 10
15 15 16 17 14 14 15 10 11 13 14 12 11 13 14 15 16 17 20 24 27 24 26 26 30 30 32 27 25 37 31 22 21 19 20 16 14 10 10 11 6 5 12 13 14
15 15 18 17 16 16 16 10 10 13 12 14 11 12 12 11 11 11 13 15 17 22 24 26 27 29 31 27 28 32 29 26 22 20 19 25 19 16 19 20 20 19 19 21 22
Wind_Direction
339 338 338 339 340 344 345 349 355 0 360 1 358 356 358 357 3 9 358 358 353 346 342 338 338 339 334 328 327 324 306 302 301 304 302 303 303 294 285 278 276 274 272 273 276
336 332 334 334 338 339 345 348 356 360 359 1 358 0 1 2 10 5 7 359 351 347 344 343 339 339 330 322 324 317 305 304 312 312 309 306 303 303 285 275 274 275 274 274 273
332 333 332 333 334 339 343 348 358 0 1 1 4 5 5 12 4 2 2 354 349 348 345 344 345 337 326 322 318 319 307 313 312 311 309 306 303 307 295 276 273 272 276 277 275
333 330 330 333 331 334 344 352 359 360 2 6 9 9 12 14 355 1 357 352 350 349 348 347 345 332 320 317 320 312 310 310 311 308 305 301 302 300 295 283 278 276 275 275 274
335 331 329 332 328 334 343 354 360 0 6 11 12 14 18 9 2 1 355 354 354 353 349 344 338 331 321 318 315 309 308 307 307 305 301 299 295 293 292 287 276 273 274 273 273
338 332 329 329 324 335 347 358 358 8 13 13 16 20 19 0 4 0 355 356 357 352 345 342 338 331 322 317 312 314 311 309 306 302 299 295 291 289 286 289 284 279 266 271 274
339 331 328 325 327 337 352 355 7 14 15 17 22 26 18 6 6 0 1 358 0 352 342 338 336 332 331 323 325 319 312 310 307 305 301 298 293 288 290 290 283 283 277 271 269
335 330 327 328 331 341 350 2 17 19 19 25 26 22 11 13 8 2 3 5 359 358 359 353 346 337 332 329 324 320 318 317 322 316 306 299 287 292 294 291 286 283 283 279 278
335 333 333 333 331 350 350 15 21 21 27 30 26 19 10 12 0 9 9 2 4 15 13 13 11 359 355 348 341 341 329 322 315 315 306 303 292 296 297 293 285 282 276 278 277
333 332 332 330 339 352 0 21 24 29 30 33 25 18 11 1 4 15 9 9 14 14 23 25 24 18 18 4 354 342 333 329 316 316 313 305 289 290 296 292 291 287 284 282 281
329 327 331 333 353 359 10 19 16 17 19 20 18 16 5 8 23 12 12 17 22 30 25 29 30 22 10 3 357 345 331 322 322 316 312 307 299 295 303 310 309 306 299 294 289
330 326 331 336 6 360 14 15 16 18 15 28 21 13 14 14 20 13 17 21 29 28 24 32 29 19 13 6 354 341 329 319 312 318 317 304 296 296 315 317 319 315 310 307 299
331 327 328 333 13 11 13 17 22 29 20 24 18 15 17 20 25 16 17 26 26 24 24 28 23 15 11 2 353 347 338 332 314 305 296 298 296 299 310 312 315 313 314 310 303
330 329 328 332 12 9 14 18 26 31 22 13 15 20 20 26 29 25 24 28 25 22 25 32 25 18 10 4 358 350 353 337 322 315 314 324 315 325 316 310 312 311 309 306 291
330 331 334 353 2 5 15 25 35 35 15 14 18 28 26 32 27 23 28 32 27 23 30 31 26 21 16 8 4 356 350 354 2 6 333 315 308 326 323 313 312 309 308 301 286
329 329 333 8 11 14 29 34 37 20 17 20 23 22 28 31 35 31 30 30 37 32 32 36 30 29 22 11 12 5 10 29 39 50 28 347 325 337 328 317 314 312 314 306 306
327 326 342 2 5 21 35 28 15 17 21 18 23 25 32 29 36 32 32 28 32 35 36 34 41 28 26 17 26 19 23 32 41 40 23 336 354 345 332 327 326 316 311 316 328
322 328 345 1 15 32 29 14 13 23 26 27 31 32 36 33 38 37 40 39 46 45 39 35 36 29 27 28 17 28 33 44 44 56 49 352 348 341 336 328 325 323 318 334 335
322 330 344 2 16 33 11 6 16 28 29 30 39 38 39 38 39 42 43 43 45 43 41 38 41 38 34 31 30 32 39 55 69 82 80 31 344 21 321 321 325 326 331 333 336
315 322 339 350 18 26 2 13 27 32 34 43 40 43 38 39 41 43 41 48 45 46 50 44 38 41 37 40 39 47 47 61 77 83 87 70 43 299 319 317 320 326 325 329 330
316 318 339 353 17 359 359 13 30 34 39 47 47 47 48 46 46 47 44 49 46 44 48 47 47 37 43 41 41 46 53 69 88 99 106 114 105 275 303 306 307 293 296 301 264
308 316 338 356 341 347 359 20 29 36 42 58 55 55 54 52 49 48 47 46 42 44 44 47 46 42 46 60 57 54 57 73 84 92 111 116 109 178 316 167 181 168 191 161 150
302 315 331 341 338 347 1 12 32 34 50 62 60 58 57 53 49 50 47 47 45 43 46 47 46 44 50 57 56 59 58 76 93 114 98 108 118 318 40 131 141 144 151 147 144
305 312 317 326 330 348 357 12 29 24 49 67 65 61 55 54 55 50 46 51 46 44 51 56 50 52 51 54 58 58 63 72 94 93 103 103 117 97 98 109 122 145 150 148 141
298 305 309 313 319 336 344 11 20 38 47 71 71 67 58 53 53 54 50 48 52 46 52 54 50 54 60 65 64 64 67 77 87 93 96 104 113 102 105 114 136 147 140 155 156
294 300 297 300 323 330 337 11 27 29 40 59 69 65 64 58 59 58 51 43 41 49 51 53 51 53 55 65 71 62 67 80 89 95 96 101 112 105 116 126 145 156 143 147 151
290 298 287 298 308 314 322 1 26 21 38 37 69 68 62 67 71 67 60 53 54 49 49 49 50 50 53 59 68 69 67 80 89 95 102 93 107 101 103 110 112 117 123 127 130